User: anonymous   Login
Location: Unspecified
(0.0000°N, 0.0000°E)
Time: 14:46:11
(UTC+00:00)
Language:

SMS 1 - Orbit

View from above orbital plane
View from above orbital plane
View from above satellite
View from above satellite

Ground track
Ground track

The orbit data is extracted from the following two-line orbital elements,

1  7298U 74033A   17205.60118771 -.00000261 +00000-0 +00000-0 0  9999
2  7298 011.9656 305.8021 0018135 332.1145 028.4665 00.98614870087821
Epoch (UTC): 24 July 2017 14:25:42
Eccentricity: 0.0018135
inclination: 11.9656°
perigee height: 36180 km
apogee height: 36334 km
right ascension of ascending node: 305.8021°
argument of perigee: 332.1145°
revolutions per day: 0.98614870
mean anomaly at epoch: 28.4665°
orbit number at epoch: 8782

The dashed part of the orbit path shows where the satellite is in the earth's shadow,  

DLR